Lid_Strength_Index
2 2 1 2 3 4 5 5 8 5 6 10 12 15 14 13 13 10 11 12 12 14 14 16 16 16 15 12 12 15 14 16 20 17 14 13 13 15 15 22 22 21 23 22
3 3 2 2 3 4 4 6 7 4 5 12 13 12 13 12 13 13 13 14 14 14 15 18 15 15 12 12 13 15 14 17 21 20 18 16 17 15 15 15 18 22 24 20
3 3 2 2 3 4 5 5 10 6 7 8 11 12 12 12 10 11 11 12 12 14 15 15 17 16 14 14 14 13 13 17 18 20 19 17 18 16 15 17 22 22 20 20
3 3 3 2 3 4 5 6 9 9 11 10 11 10 11 12 12 10 10 12 12 13 15 14 14 13 13 12 12 15 16 20 18 17 16 16 17 17 17 18 18 22 21 20
3 3 3 3 3 3 5 6 7 9 9 10 10 11 11 11 11 11 12 13 11 12 14 13 15 14 14 14 14 15 14 18 17 19 17 17 18 17 17 17 17 18 17 18
3 4 4 3 3 3 5 7 8 8 10 9 10 10 11 10 10 10 9 10 12 12 11 11 12 12 12 13 14 15 16 17 18 20 16 17 20 17 17 17 17 17 19 16
3 3 3 3 3 3 5 7 7 8 10 10 9 10 10 10 10 10 10 10 11 10 10 10 12 13 13 13 13 13 15 17 17 20 18 22 15 14 15 15 15 15 15 15
3 3 3 3 3 3 5 6 7 8 10 8 9 9 10 10 10 11 10 9 9 9 11 13 14 15 16 15 14 14 14 16 19 21 22 17 14 15 15 16 15 13 14 14
3 4 4 3 4 3 3 5 5 7 9 9 8 9 9 11 10 11 10 9 9 10 12 13 16 17 16 18 18 15 14 15 18 18 21 21 16 14 13 13 17 12 11 11
3 4 4 4 4 4 4 4 5 6 9 7 9 10 10 9 11 11 11 11 12 11 13 15 16 16 14 17 18 20 18 18 20 19 19 18 13 13 13 18 16 11 11 11
3 4 4 4 5 5 5 4 5 7 8 8 8 8 10 9 10 12 12 12 12 13 14 14 14 15 15 17 15 17 18 20 20 18 18 20 12 13 15 12 12 11 11 11
4 4 4 4 4 4 5 7 6 6 8 9 7 7 7 7 8 9 10 10 11 11 14 13 13 15 15 15 17 14 17 14 16 16 16 11 11 12 11 10 11 11 11 11
4 4 4 4 5 4 5 6 7 8 9 9 9 9 7 6 6 6 11 10 8 9 9 12 13 15 13 16 16 14 13 11 14 14 12 11 10 10 10 9 10 10 10 11
5 5 5 5 5 4 4 7 6 7 9 12 11 8 9 7 7 7 7 8 8 9 10 12 14 14 11 13 12 13 12 11 13 13 12 11 10 9 9 9 10 10 10 11
6 5 5 5 5 5 5 6 6 6 9 13 12 9 9 8 8 8 8 8 9 9 12 13 14 12 12 12 13 14 11 11 13 13 10 10 10 9 9 10 10 10 12 11
6 6 5 6 5 5 6 10 5 5 6 11 14 9 10 11 10 10 9 9 9 10 12 13 12 11 11 14 15 11 10 9 9 11 9 9 9 8 9 10 10 11 11 11
6 6 6 6 5 6 8 9 7 5 6 11 14 13 11 10 10 11 11 10 10 10 12 13 12 12 11 13 15 11 10 9 9 8 9 10 9 10 8 10 11 10 11 11
5 6 6 6 6 6 9 8 5 5 7 9 14 14 13 11 13 13 11 13 12 13 13 13 14 12 12 15 11 11 9 9 9 9 9 9 9 10 11 11 11 12 11 11
5 5 5 6 8 10 9 5 5 5 8 12 13 16 17 12 12 12 12 12 15 12 14 14 13 14 16 14 13 12 11 11 11 10 11 11 12 11 11 11 11 11 11 11
5 6 8 11 8 4 5 7 9 9 9 10 14 12 13 12 13 13 12 13 14 15 14 12 14 15 12 11 10 10 10 10 10 12 12 12 12 11 11 11 11 11 10 10
7 9 10 6 4 6 8 11 12 13 13 11 12 12 13 10 12 12 11 12 13 16 15 15 15 18 14 12 12 11 11 10 11 11 11 11 11 11 11 11 10 10 10 10
6 7 6 6 8 11 12 14 13 13 14 11 11 11 10 10 9 11 11 13 12 16 12 14 18 15 13 12 12 12 11 11 11 10 10 9 9 9 9 9 9 9 8 8
5 8 12 11 12 15 16 18 17 15 11 10 10 11 10 10 9 10 10 12 14 12 13 16 15 13 11 11 10 9 9 9 8 8 8 8 8 7 8 8 7 7 8 7
8 11 15 15 17 15 15 16 15 11 10 9 9 9 9 9 10 9 12 11 11 14 17 17 12 10 8 7 7 7 7 7 7 7 7 6 6 7 6 7 6 7 7 7
8 8 13 16 13 13 13 12 12 10 8 7 8 8 8 10 10 9 11 16 16 14 14 11 9 8 7 7 7 7 7 8 8 7 8 8 8 7 7 7 7 7 7 7
7 7 12 11 14 14 13 13 13 8 7 7 7 14 16 14 13 16 16 19 19 16 12 9 8 8 8 7 6 6 6 7 7 7 7 7 7 7 8 8 8 8 7 7
7 11 9 11 11 12 10 9 10 6 7 12 11 14 12 10 14 19 16 18 13 10 9 9 8 7 7 7 8 8 8 7 7 6 6 6 6 6 7 8 7 7 7 7